Location: Chandolas
(44.4033°N, 4.2533°E)
Time: 18:55:40
(UTC+00:00)

MSX - Pass Details

Date: 15 November 2019
Orbit: 895 x 906 km, 98.8° (Epoch: 07 December)

Event Time Altitude Azimuth Distance (km) Brightness Sun altitude
Rises 04:33:20 0° 7° (N) 3,525 7.0 -22.3°
Reaches altitude 10° 04:35:50 10° 1° (N) 2,582 6.2 -21.9°
Maximum altitude 04:41:12 42° 293° (WNW) 1,257 4.1 -20.9°
Enters shadow 04:42:12 39° 267° (W) 1,324 4.2 -20.7°
